This is the latest recevied weather packets stored in our database for station/object KF5JED-13. If no packets are shown the sender has not sent any weather packets the latest 10 day(s).
| Time | Temp. | Humidity | Pressure | Rain* | Wind** | Luminosity | Snow |
|---|---|---|---|---|---|---|---|
| 1777467382 | 6.67° C | 82% | 1020 hPa | 0 mm | - | 67 W/m² | - |
| 1777466770 | 6.67° C | 83% | 1019.9 hPa | 0 mm | - | 77 W/m² | - |
| 1777466164 | 6.11° C | 84% | 1019.8 hPa | 0 mm | - | 44 W/m² | - |
| 1777465860 | 6.11° C | 84% | 1019.6 hPa | 0 mm | - | 34 W/m² | - |
| 1777465556 | 6.11° C | 83% | 1019.7 hPa | 0 mm | - | 27 W/m² | - |
| 1777465250 | 6.11° C | 83% | 1019.6 hPa | 0 mm | - | 19 W/m² | - |
| 1777464946 | 6.11° C | 83% | 1019.4 hPa | 0 mm | - | 14 W/m² | - |
| 1777464641 | 6.11° C | 83% | 1019.5 hPa | 0 mm | - | 10 W/m² | - |
| 1777462510 | 7.22° C | 81% | 1018.9 hPa | 0 mm | - | 0 W/m² | - |
| 1777462207 | 7.22° C | 80% | 1018.6 hPa | 0 mm | - | 0 W/m² | - |
| 1777461600 | 7.22° C | 80% | 1018.5 hPa | 0 mm | - | 0 W/m² | - |
| 1777461295 | 7.22° C | 79% | 1018.4 hPa | 0 mm | - | 0 W/m² | - |
| 1777460991 | 7.78° C | 79% | 1018.6 hPa | 0 mm | - | 0 W/m² | - |
| 1777460383 | 7.78° C | 78% | 1018.6 hPa | 0 mm | - | 0 W/m² | - |
| 1777459473 | 7.78° C | 77% | 1018.2 hPa | 0 mm | - | 0 W/m² | - |
| 1777459170 | 7.78° C | 77% | 1018.4 hPa | 0 mm | - | 0 W/m² | - |
| 1777458862 | 7.78° C | 77% | 1018.5 hPa | 0 mm | - | 0 W/m² | - |
| 1777458558 | 7.78° C | 76% | 1018.1 hPa | 0 mm | - | 0 W/m² | - |
| 1777458255 | 8.33° C | 76% | 1018.1 hPa | 0 mm | - | 0 W/m² | - |
| 1777457949 | 8.33° C | 76% | 1018 hPa | 0 mm | - | 0 W/m² | - |
| 1777457647 | 8.33° C | 76% | 1018.4 hPa | 0 mm | - | 0 W/m² | - |
| 1777457341 | 8.33° C | 76% | 1017.9 hPa | 0 mm | - | 0 W/m² | - |
| 1777457036 | 8.33° C | 75% | 1018.2 hPa | 0 mm | - | 0 W/m² | - |
| 1777456732 | 8.33° C | 75% | 1018.4 hPa | 0 mm | - | 0 W/m² | - |
| 1777456431 | 8.33° C | 75% | 1018.6 hPa | 0 mm | - | 0 W/m² | - |
* Rain latest hour (hover to see other rain measurements)
** Current wind speed in m/s (hover to see current wind gust speed)